Tracking 19484 objects as of 19-Jan-2019
HD Live streaming from Space Station
objects crossing your sky now

COSMOS 1904

Track COSMOS 1904 now!
10-day predictions
COSMOS 1904 is classified as:


NORAD ID: 18709
Int'l Code: 1987-106A
Perigee: 970.8 km
Apogee: 1,012.3 km
Inclination: 82.9 °
Period: 104.8 minutes
Semi major axis: 7362 km
RCS: 2.2337 m2 (large)
Launch date: December 23, 1987
Source: Commonwealth of Independent States (former USSR) (CIS)
Launch site: PLESETSK MISSILE AND SPACE COMPLEX (PKMTR)
aabbcc
Your satellite tracking list
Your tracking list is empty




NASA's NSSDC Master Catalog

Two Line Element Set (TLE):
1 18709U 87106A   19018.86252198  .00000021  00000-0  62699-5 0  9997
2 18709  82.9148 280.9654 0028203  20.1921  49.9116 13.74225289558251
Source of the keplerian elements: AFSPC